TimeCST,TemperatureF,Dew PointF,Humidity,Sea Level PressureIn,VisibilityMPH,Wind Direction,Wind SpeedMPH,Gust SpeedMPH,PrecipitationIn,Events,Conditions,WindDirDegrees,DateUTC
12:15 AM,30.6,27.3,88,29.85,10.0,West,3.5,-,N/A,,Clear,260,2013-02-05 06:15:00
12:35 AM,31.8,28.6,88,29.84,10.0,SW,4.6,-,N/A,,Clear,220,2013-02-05 06:35:00
12:55 AM,30.6,27.5,88,29.85,10.0,SW,6.9,-,N/A,,Clear,230,2013-02-05 06:55:00
1:15 AM,30.0,27.3,90,29.84,10.0,WSW,3.5,-,N/A,,Clear,250,2013-02-05 07:15:00
1:35 AM,30.6,27.3,88,29.84,10.0,West,5.8,-,N/A,,Clear,280,2013-02-05 07:35:00
1:55 AM,30.4,27.3,88,29.84,10.0,West,5.8,-,N/A,,Clear,260,2013-02-05 07:55:00
2:15 AM,32.4,27.5,82,29.84,10.0,WNW,6.9,-,N/A,,Clear,290,2013-02-05 08:15:00
2:35 AM,29.5,25.3,85,29.85,10.0,WNW,8.1,-,N/A,,Clear,300,2013-02-05 08:35:00
2:55 AM,31.8,27.1,83,29.86,10.0,WNW,8.1,-,N/A,,Clear,300,2013-02-05 08:55:00
3:15 AM,33.4,27.1,78,29.86,10.0,West,9.2,-,N/A,,Clear,280,2013-02-05 09:15:00
3:35 AM,32.5,26.6,79,29.86,10.0,WNW,9.2,-,N/A,,Clear,290,2013-02-05 09:35:00
3:55 AM,32.2,25.7,77,29.87,10.0,NW,9.2,-,N/A,,Clear,310,2013-02-05 09:55:00
4:15 AM,31.3,25.3,79,29.88,10.0,NW,5.8,-,N/A,,Clear,320,2013-02-05 10:15:00
4:35 AM,32.5,25.2,74,29.87,10.0,NW,6.9,-,N/A,,Clear,320,2013-02-05 10:35:00
4:55 AM,32.7,25.2,74,29.88,10.0,WNW,8.1,-,N/A,,Clear,300,2013-02-05 10:55:00
5:15 AM,33.6,24.8,70,29.88,10.0,WNW,8.1,-,N/A,,Clear,300,2013-02-05 11:15:00
5:35 AM,33.8,24.6,69,29.89,10.0,WNW,8.1,-,N/A,,Clear,300,2013-02-05 11:35:00
5:55 AM,33.6,24.3,69,29.89,10.0,WNW,9.2,-,N/A,,Clear,290,2013-02-05 11:55:00
6:15 AM,34.0,24.4,68,29.90,10.0,WNW,9.2,-,N/A,,Clear,300,2013-02-05 12:15:00
6:35 AM,33.4,24.3,69,29.91,10.0,WNW,8.1,-,N/A,,Clear,300,2013-02-05 12:35:00
6:55 AM,32.4,23.9,71,29.92,10.0,WNW,6.9,-,N/A,,Clear,300,2013-02-05 12:55:00
7:15 AM,31.6,23.7,73,29.92,10.0,WNW,6.9,-,N/A,,Clear,290,2013-02-05 13:15:00
7:35 AM,30.7,23.4,74,29.94,10.0,WNW,6.9,-,N/A,,Clear,300,2013-02-05 13:35:00
8:15 AM,32.0,23.7,71,29.96,10.0,WNW,6.9,-,N/A,,Clear,290,2013-02-05 14:15:00
8:35 AM,32.2,24.3,73,29.97,10.0,WNW,8.1,-,N/A,,Clear,290,2013-02-05 14:35:00
8:55 AM,33.6,25.7,73,29.98,10.0,West,8.1,-,N/A,,Clear,280,2013-02-05 14:55:00
9:15 AM,36.7,27.7,70,29.98,10.0,WNW,5.8,-,N/A,,Clear,300,2013-02-05 15:15:00
9:35 AM,40.3,28.9,64,30.00,10.0,NW,9.2,-,N/A,,Clear,320,2013-02-05 15:35:00
9:55 AM,41.4,29.5,63,30.01,10.0,NW,8.1,-,N/A,,Clear,320,2013-02-05 15:55:00
10:15 AM,44.1,29.8,57,30.01,10.0,NNW,10.4,-,N/A,,Clear,340,2013-02-05 16:15:00
10:35 AM,45.5,29.5,54,30.02,10.0,North,9.2,-,N/A,,Clear,350,2013-02-05 16:35:00
10:55 AM,46.8,30.2,53,30.02,10.0,NNW,8.1,-,N/A,,Clear,340,2013-02-05 16:55:00
11:15 AM,48.2,30.0,49,30.03,10.0,NNW,10.4,-,N/A,,Clear,340,2013-02-05 17:15:00
11:35 AM,49.3,30.6,49,30.04,10.0,NNW,9.2,-,N/A,,Clear,340,2013-02-05 17:35:00
11:55 AM,51.4,29.3,43,30.04,10.0,NNW,11.5,17.3,N/A,,Clear,340,2013-02-05 17:55:00
12:15 PM,52.0,28.6,41,30.04,10.0,North,12.7,17.3,N/A,,Clear,350,2013-02-05 18:15:00
12:35 PM,52.5,28.2,39,30.02,10.0,North,11.5,17.3,N/A,,Clear,350,2013-02-05 18:35:00
12:55 PM,53.2,27.5,37,30.02,10.0,North,11.5,-,N/A,,Clear,350,2013-02-05 18:55:00
1:15 PM,54.0,28.0,37,30.02,10.0,NNW,10.4,-,N/A,,Clear,340,2013-02-05 19:15:00
1:35 PM,54.9,27.0,34,30.01,10.0,North,10.4,-,N/A,,Clear,350,2013-02-05 19:35:00
1:55 PM,54.9,26.4,33,30.01,10.0,NNW,8.1,-,N/A,,Clear,330,2013-02-05 19:55:00
2:15 PM,55.0,25.2,32,30.00,10.0,NNW,4.6,-,N/A,,Clear,330,2013-02-05 20:15:00
2:35 PM,55.6,25.2,31,29.99,10.0,North,5.8,-,N/A,,Clear,350,2013-02-05 20:35:00
2:55 PM,55.4,24.3,30,29.99,10.0,North,8.1,-,N/A,,Clear,10,2013-02-05 20:55:00
3:15 PM,55.9,24.4,30,29.98,10.0,NNW,6.9,-,N/A,,Clear,340,2013-02-05 21:15:00
3:35 PM,55.8,24.1,29,29.98,10.0,NNW,4.6,-,N/A,,Clear,330,2013-02-05 21:35:00
3:55 PM,55.9,23.4,28,29.98,10.0,NNW,3.5,-,N/A,,Clear,340,2013-02-05 21:55:00
4:15 PM,55.4,23.4,29,29.98,10.0,Calm,Calm,-,N/A,,Clear,0,2013-02-05 22:15:00
4:35 PM,54.7,23.0,29,29.97,10.0,NNE,3.5,-,N/A,,Clear,30,2013-02-05 22:35:00
4:55 PM,54.7,23.9,30,29.97,10.0,ENE,3.5,-,N/A,,Clear,60,2013-02-05 22:55:00
5:15 PM,54.1,23.7,31,29.97,10.0,East,3.5,-,N/A,,Clear,90,2013-02-05 23:15:00
5:35 PM,51.6,24.8,35,29.97,10.0,East,5.8,-,N/A,,Clear,90,2013-02-05 23:35:00
5:55 PM,46.8,25.7,44,29.98,10.0,East,5.8,-,N/A,,Clear,100,2013-02-05 23:55:00
6:15 PM,44.8,25.5,47,29.98,10.0,East,8.1,-,N/A,,Clear,100,2013-02-06 00:15:00
6:35 PM,40.3,25.7,56,29.98,10.0,ESE,8.1,-,N/A,,Clear,120,2013-02-06 00:35:00
6:55 PM,37.6,25.2,61,29.98,10.0,SE,9.2,-,N/A,,Clear,130,2013-02-06 00:55:00
7:15 PM,37.0,25.2,62,29.99,10.0,SE,9.2,-,N/A,,Clear,130,2013-02-06 01:15:00
7:55 PM,36.1,25.7,66,30.00,10.0,SE,9.2,-,N/A,,Clear,140,2013-02-06 01:55:00
8:35 PM,37.4,27.1,66,30.00,10.0,SE,9.2,-,N/A,,Clear,140,2013-02-06 02:35:00
9:15 PM,37.6,28.8,70,30.00,10.0,SSE,6.9,-,N/A,,Mostly Cloudy,150,2013-02-06 03:15:00
9:35 PM,39.2,29.8,69,30.00,10.0,SSE,10.4,-,N/A,,Overcast,150,2013-02-06 03:35:00
9:55 PM,39.6,29.8,68,30.00,10.0,SSE,9.2,-,N/A,,Overcast,150,2013-02-06 03:55:00
10:15 PM,40.3,29.7,66,29.99,10.0,SSE,11.5,-,N/A,,Overcast,150,2013-02-06 04:15:00
10:35 PM,40.1,29.8,67,29.98,10.0,SSE,10.4,-,N/A,,Overcast,150,2013-02-06 04:35:00
10:55 PM,39.7,29.7,67,29.97,10.0,SSE,10.4,-,N/A,,Mostly Cloudy,150,2013-02-06 04:55:00
11:15 PM,38.3,29.8,72,29.97,10.0,SSE,10.4,-,N/A,,Mostly Cloudy,160,2013-02-06 05:15:00
11:35 PM,38.3,30.0,72,29.97,10.0,SSE,10.4,-,N/A,,Mostly Cloudy,150,2013-02-06 05:35:00
11:55 PM,37.6,29.8,74,29.96,10.0,SSE,10.4,-,N/A,,Scattered Clouds,150,2013-02-06 05:55:00